Location: Igon
(43.1667°N, 0.2333°W)
Time: 08:19:51
(UTC+00:00)

Cosmos 2228 Rocket - Pass Details

Date: 29 November 2020
Orbit: 618 x 652 km, 82.5° (Epoch: 24 January)

Event Time Altitude Azimuth Distance (km) Brightness Sun altitude
Rises 05:43:59 0° 352° (N) 2,920 6.3 -15.5°
Reaches altitude 10° 05:46:14 10° 352° (N) 2,004 5.4 -15.1°
Maximum altitude 05:50:40 87° 82° (E) 628 3.1 -14.3°
Drops below altitude 10° 05:55:03 10° 172° (S) 1,977 6.0 -13.6°
Sets 05:57:16 0° 173° (S) 2,877 6.8 -13.2°
